Regional Weather Roundup
Issued by NWS New Orleans/Baton Rouge, LA

Home | Current Version | Previous Version | Graphics & Text | Print | Product List | Glossary On
Versions: 1 2 3 4 5 6 7 8 9 10 11 12 13 14 15 16 17 18 19 20 21 22 23 24 25 26 27 28 29 30 31 32 33 34 35 36 37 38 39 40 41 42 43 44 45 46 47 48 49 50
977
ASUS44 KLIX 271801
RWRLIX
NEW ORLEANS REGIONAL WEATHER ROUNDUP
NATIONAL WEATHER SERVICE NEW ORLEANS LA
1200 PM CST THU NOV 27 2014

NOTE: "FAIR" INDICATES FEW OR NO CLOUDS BELOW 12,000 FEET WITH NO
      SIGNIFICANT WEATHER AND/OR OBSTRUCTIONS TO VISIBILITY.
      SKY/WX - SKY CONDITION AND SIGNIFICANT WEATHER.
      TMP - AIR TEMPERATURE.     DP    - DEWPOINT TEMPERATURE.
      RH  - RELATIVE HUMIDITY.   PRES  - PRESSURE.
      HI  - HEAT INDEX.          WCI   - WIND CHILL INDEX.

*  THESE STATIONS ARE NOT NWS OR FAA STATIONS AND ARE NOT UNDER
   NWS QUALITY CONTROL.

LAZ038-040-048-061>063-065>067-069-271900-
SOUTHEAST LOUISIANA

CITY           SKY/WX    TMP DP  RH WIND       PRES   REMARKS
N.O. AUDUBON     N/A     58  36  43 MISG        N/A
6HR MIN TEMP:  50; 6HR MAX TEMP:  59;

N.O. INTL ARPT MOSUNNY   57  34  41 N16       30.42F
6HR MIN TEMP:  51; 6HR MAX TEMP:  58;

N.O. LAKEFRONT SUNNY     58  34  40 NW13      30.42F
6HR MIN TEMP:  54; 6HR MAX TEMP:  58;

N.O. DOWNTOWN*   N/A     55  34  44 N8        30.42F
6HR MIN TEMP:  52; 6HR MAX TEMP:  55;

SLIDELL        SUNNY     60  31  33 N9G18     30.40F
6HR MIN TEMP:  40; 6HR MAX TEMP:  60;

BATON ROUGE    SUNNY     58  30  34 NW9       30.44F
6HR MIN TEMP:  42; 6HR MAX TEMP:  58;

BOOTHVILLE     SUNNY     56  37  49 N8G17     30.40F
6HR MIN TEMP:  53; 6HR MAX TEMP:  57;

BELLE CHASSE   SUNNY     60  33  36 N10       30.40F
6HR MIN TEMP:  45; 6HR MAX TEMP:  60;

BOGALUSA*        N/A     59  30  34 N13       30.43F
6HR MIN TEMP:  36; 6HR MAX TEMP:  59;

NEW ROADS*     NOT AVBL
GONZALES*      NOT AVBL
HAMMOND*       NOT AVBL
HOUMA*         SUNNY     61  30  31 N12       30.41F
PORT FOURCHON* CLEAR     59  36  41 N14       30.43F

$$

MSZ070-080>082-271900-
SOUTHERN MISSISSIPPI

CITY           SKY/WX    TMP DP  RH WIND       PRES   REMARKS
MCCOMB         SUNNY     54  29  38 N9        30.43F
6HR MIN TEMP:  42; 6HR MAX TEMP:  54;

GULFPORT       SUNNY     58  30  34 N12       30.38F
6HR MIN TEMP:  40; 6HR MAX TEMP:  58;

BILOXI         SUNNY     58  31  36 VRB7      30.38F
6HR MIN TEMP:  47; 6HR MAX TEMP:  59;

PASCAGOULA     SUNNY     58  31  35 NW10G24   30.37F
6HR MIN TEMP:  34; 6HR MAX TEMP:  59;


$$

COASTAL OBSERVATIONS
LAKE AND NEARSHORE STATIONS

STATION/POSITION TIME  TEMP    WIND        PRES    WAVE
                       AIR SEA DIR/SP/G            HT/PER
                 (UTC) (F)     (DEG/KT/KT) (MB)    (FT/S)
PASCAGOULA       1700   57      10/  9/ 14 1028.3
WAVELAND YACHT   1700   54     350/ 11/ 14 1028.5
GRAND ISLE       1700   56 59   20/ 12/ 15 1030.1
SOUTHWEST PASS   1700   62                 1029.7
NEW CANAL        1700   53 54  360/ 10/ 12 1030.6
SHELL BEACH      1700   53 53  360/ 10/ 11 1029.6

OFFSHORE STATIONS

STATION/POSITION TIME  TEMP    WIND        PRES    WAVE
                       AIR SEA DIR/SP/G            HT/PER
                 (UTC) (F)     (DEG/KT/KT) (MB)    (FT/S)
64 S DAUPHIN ISL 1655   58 71  350/ 16/ 21 1028.7    4/ 6

$$




USA.gov is the U.S. government's official web portal to all federal, state and local government web resources and services.